Temperature
17 17 17 17 17 17 17 17 17 17 17 17 17 17 17 17 18 18 18 17 17 17 17 17 17 16 16 16 16 16 16 16 16 16 16 15 15 15 15 15 15 15 15
17 17 17 17 17 17 17 17 17 17 17 17 17 17 17 17 17 17 17 17 17 17 17 17 16 16 16 16 16 16 16 16 16 15 15 15 15 15 15 15 15 15 15
17 17 17 17 16 16 17 17 17 17 17 17 17 17 17 17 17 17 17 17 17 16 16 16 16 16 16 16 16 16 16 15 15 15 15 15 15 15 15 15 15 15 15
17 17 17 16 16 16 16 16 17 17 17 17 17 17 17 17 17 17 17 17 16 16 16 16 16 16 16 16 16 15 15 15 15 14 14 14 15 15 15 15 15 15 15
16 16 16 16 16 16 16 16 16 16 17 17 17 17 17 17 17 17 17 16 16 16 16 16 16 16 16 16 16 15 15 15 15 14 14 14 15 15 15 15 15 14 14
16 16 16 16 16 16 16 16 16 16 16 16 16 16 16 16 16 16 16 16 16 16 16 16 16 16 16 16 16 15 15 15 14 14 14 14 15 15 15 15 15 14 14
16 16 16 16 16 16 16 16 16 16 16 16 16 16 16 16 16 16 16 16 16 16 16 16 16 16 16 16 15 15 15 15 14 14 14 14 14 14 14 14 14 14 14
16 16 16 16 16 16 16 16 16 16 16 16 16 16 16 16 16 16 16 16 16 16 16 15 16 16 16 16 15 15 15 15 14 14 14 14 14 14 14 14 14 14 14
15 15 15 15 15 15 16 16 16 16 16 16 16 16 16 16 16 16 16 16 16 15 15 15 15 15 15 15 15 15 15 15 14 14 14 14 14 14 14 14 14 14 14
15 15 15 15 15 15 15 15 16 16 16 16 16 16 16 16 16 15 15 15 15 15 15 15 15 15 15 15 15 15 15 15 14 14 14 14 14 14 14 14 14 14 14
14 14 14 15 15 15 15 15 15 15 16 16 16 16 15 15 15 15 15 15 15 15 15 15 15 15 15 15 15 15 15 15 14 14 14 14 14 14 14 14 14 14 14
14 14 14 14 14 14 15 15 15 15 15 15 15 15 15 15 15 15 15 15 15 15 15 15 15 15 15 15 15 15 15 15 14 14 14 14 14 14 14 14 14 14 14
13 13 13 14 14 14 14 14 14 15 15 15 15 15 15 15 15 15 15 15 15 15 15 15 15 15 15 15 15 15 15 15 14 14 14 14 14 14 14 14 14 14 14
12 13 13 13 14 14 14 14 14 14 14 14 15 15 15 15 15 15 15 15 15 14 14 14 14 15 14 14 14 15 15 14 14 14 14 14 14 14 14 14 14 14 14
12 12 12 13 13 13 13 14 14 14 14 14 14 14 14 14 14 14 14 14 14 14 14 14 14 14 14 14 14 14 14 14 14 14 14 14 14 14 14 14 14 14 14
11 11 12 12 12 13 13 13 13 13 14 14 14 14 14 14 14 14 14 14 14 14 14 14 14 14 14 14 14 14 14 14 14 14 14 14 14 14 14 14 14 14 14
10 11 11 11 12 12 12 12 13 13 13 13 13 14 14 14 14 14 14 14 14 14 14 14 14 14 14 14 14 14 14 14 14 14 14 14 14 14 14 14 14 14 14
10 10 10 11 11 11 12 12 12 12 12 13 13 13 13 13 13 14 14 14 14 14 14 14 14 14 14 13 13 14 13 14 14 14 14 14 14 14 14 14 14 14 14
9 9 9 10 10 10 11 11 11 12 12 12 12 12 13 13 13 13 13 13 13 13 13 13 13 13 13 13 13 13 13 13 13 14 13 13 14 14 14 14 14 14 14
8 9 9 9 9 10 10 10 11 11 11 11 12 12 12 12 12 13 13 13 13 13 13 13 13 13 13 13 13 13 13 13 13 13 13 13 13 14 14 14 14 14 14
8 8 8 9 9 9 9 10 10 10 11 11 11 11 11 12 12 12 12 12 12 12 12 13 13 13 13 13 12 12 13 13 12 13 13 13 13 13 13 13 14 14 14
7 7 8 8 8 8 9 9 9 9 10 10 10 10 11 11 11 11 12 12 12 12 12 12 12 12 12 12 12 12 12 12 12 12 12 13 13 13 13 13 13 13 14
6 6 7 7 7 8 8 8 8 9 9 9 10 10 10 10 11 11 11 11 11 11 11 12 12 12 12 12 12 11 11 11 12 12 12 12 12 12 13 13 13 13 13
6 6 6 6 7 7 7 8 8 8 8 8 9 9 9 10 10 10 10 10 11 11 11 11 11 11 11 11 11 11 11 12 11 12 12 12 12 12 12 12 13 13 13
5 5 6 6 6 6 7 7 7 7 7 8 8 8 8 9 9 9 10 10 10 10 10 10 10 10 11 11 11 11 11 11 11 11 11 11 11 12 12 12 12 12 12
5 5 5 5 5 6 6 6 6 7 7 7 7 7 8 8 8 9 9 9 9 9 9 10 10 10 10 10 10 10 10 10 10 10 10 11 11 11 11 12 12 12 12
Wind_Speed
3 5 10 9 8 8 9 9 10 10 11 11 10 10 9 9 8 8 8 9 10 10 10 10 10 9 10 10 11 12 12 13 14 14 14 14 13 13 12 11 14 13 14
3 6 10 8 8 8 8 9 9 10 10 10 10 10 9 9 8 8 8 8 9 9 10 10 9 10 10 11 11 11 12 12 12 14 15 14 13 13 14 15 15 12 13
4 7 9 8 7 7 7 8 8 9 10 10 10 10 9 9 8 8 8 8 8 9 10 10 9 10 10 10 10 10 10 9 9 10 11 13 12 12 13 13 13 12 13
5 6 7 7 6 7 7 8 8 9 9 9 9 9 9 9 8 8 8 8 9 9 10 10 10 10 11 10 10 9 8 6 5 4 5 11 12 10 10 11 11 12 12
5 6 7 8 6 5 6 7 7 8 9 9 10 10 10 9 9 8 8 8 9 9 10 10 11 11 11 10 9 8 6 4 3 3 5 14 13 10 9 10 10 10 11
5 6 6 6 5 4 5 6 7 7 8 9 10 10 10 10 10 9 9 9 9 10 10 11 12 11 11 10 9 8 5 4 5 3 7 14 12 9 9 9 9 9 9
6 6 4 4 3 3 4 5 6 7 8 9 10 10 10 11 10 10 10 10 10 11 11 12 12 11 11 10 9 8 6 5 6 1 8 14 12 9 8 8 8 8 8
6 5 3 1 2 3 4 5 6 8 8 9 10 10 10 11 11 11 11 12 12 12 12 12 12 12 11 11 10 8 7 6 5 2 9 13 12 9 7 7 7 6 6
6 5 4 2 2 3 5 7 7 8 9 9 10 10 11 11 12 12 13 13 13 13 13 13 13 13 12 11 10 9 8 8 8 2 7 12 11 9 7 6 6 5 5
5 5 5 5 4 3 4 6 8 9 10 11 11 11 11 12 13 14 14 15 15 15 14 14 14 14 13 12 11 10 9 8 9 5 7 12 12 9 8 7 6 5 4
6 5 5 4 4 5 6 5 7 9 10 11 11 12 11 11 12 13 14 16 17 17 16 15 15 15 14 13 12 11 10 9 10 6 8 13 12 10 8 7 6 5 4
6 6 5 6 5 5 6 5 4 6 8 10 9 10 10 11 11 11 14 17 18 18 17 16 16 16 14 11 12 12 10 12 10 6 10 15 12 10 9 8 7 6 5
5 5 5 5 5 5 4 4 3 4 4 7 9 10 10 9 8 7 7 10 14 15 13 14 14 13 12 11 11 12 13 13 10 8 13 17 14 12 11 10 9 8 7
6 6 5 5 5 5 5 4 4 3 2 3 5 7 6 4 4 4 4 7 8 10 9 10 9 12 13 14 13 12 14 11 8 8 13 18 15 13 12 11 11 10 9
6 7 6 5 5 5 4 4 4 3 3 4 5 6 6 3 4 4 5 6 8 9 8 7 8 9 9 10 11 11 10 11 10 9 12 18 17 15 14 13 12 12 11
7 7 6 6 5 5 5 4 4 4 5 5 4 5 7 5 4 5 5 6 6 8 9 8 9 8 8 7 8 9 8 10 10 10 12 16 18 17 15 14 14 13 13
8 7 7 7 5 5 6 6 5 5 5 4 4 6 7 6 5 5 5 6 6 8 9 7 8 7 7 7 8 8 7 7 7 8 11 14 16 18 17 16 15 15 14
8 9 8 9 7 6 5 5 5 5 5 4 4 4 6 6 5 4 5 5 6 6 5 6 6 6 6 6 6 6 6 6 7 7 9 12 14 15 17 18 17 16 16
7 8 8 8 8 7 6 5 5 4 4 4 4 3 4 5 5 3 4 4 5 4 5 6 5 5 6 6 6 6 6 6 6 6 7 9 12 14 16 19 20 18 17
7 7 8 8 8 8 6 5 4 3 4 3 3 3 4 4 4 3 3 3 3 4 5 5 6 6 5 6 6 6 6 6 6 7 8 8 10 13 15 16 17 18 19
8 8 8 8 8 7 5 5 4 3 3 3 3 4 4 3 4 2 2 3 3 4 5 6 5 6 6 4 3 4 5 6 7 7 7 6 8 11 14 15 15 15 15
9 9 9 9 9 8 6 5 4 4 3 3 3 3 3 3 3 3 2 3 3 4 5 5 5 5 4 5 4 3 3 4 6 8 7 8 8 7 9 13 14 15 14
8 9 9 9 9 8 8 6 5 4 3 3 4 4 4 4 3 2 2 2 3 3 4 5 6 7 6 6 5 4 4 5 3 5 8 8 8 7 7 8 11 14 15
7 7 8 9 9 8 7 6 5 4 3 3 3 3 4 4 4 4 3 2 2 2 3 5 5 5 6 6 5 6 5 3 3 3 4 6 8 8 8 7 8 11 14
8 7 8 8 9 9 8 8 6 4 3 3 3 4 4 3 3 4 3 3 2 2 3 4 4 5 5 6 5 5 6 4 4 4 4 4 5 7 8 8 8 9 13
7 7 7 8 9 9 9 8 7 6 5 5 5 4 4 3 3 4 3 2 2 2 3 3 4 4 4 5 5 5 4 4 5 5 5 5 6 6 7 7 8 8 10
Wind_Direction
40 107 141 149 154 153 154 153 152 155 155 155 153 152 150 145 139 135 134 133 132 130 126 123 119 115 110 103 99 97 95 92 92 89 86 83 81 78 70 75 86 79 79
29 102 135 147 158 159 160 159 158 160 162 163 162 163 162 158 155 152 151 150 146 143 139 134 129 123 117 111 106 103 103 101 104 104 96 84 79 75 70 71 83 85 81
39 96 125 141 155 161 162 160 160 166 170 171 172 172 171 170 168 165 164 165 161 153 147 141 136 130 124 119 115 110 113 117 126 131 120 105 91 81 79 79 84 85 82
34 86 117 132 150 163 168 168 169 176 178 179 180 180 179 180 178 178 178 176 167 158 153 144 138 132 128 125 122 120 125 138 158 170 150 118 101 92 89 87 87 85 83
34 64 108 128 144 163 175 178 182 186 189 191 189 189 189 189 188 188 188 183 173 165 159 150 144 140 136 134 132 133 144 178 225 229 114 105 103 103 96 93 91 89 86
27 51 102 124 141 162 178 188 194 199 203 203 202 200 198 199 198 196 190 184 176 172 165 158 151 150 147 146 146 151 171 221 274 253 121 112 113 114 106 100 96 94 91
16 32 82 119 141 169 186 196 204 210 214 212 212 210 208 208 207 203 195 187 178 175 171 164 161 159 157 159 160 168 195 241 266 285 102 111 121 123 119 113 108 103 96
9 13 23 130 173 193 202 205 212 217 220 220 219 218 218 216 213 208 201 192 184 182 179 173 170 169 167 168 170 178 204 244 265 183 113 118 129 131 130 126 119 112 105
3 2 2 333 256 229 221 213 216 221 223 224 224 221 220 219 217 212 204 197 190 188 186 180 178 177 175 175 177 183 206 242 281 259 135 130 139 143 145 141 134 127 119
355 357 356 345 335 304 251 229 225 227 229 228 227 226 224 224 221 216 209 201 196 193 190 186 184 184 181 181 183 188 207 240 262 248 143 142 151 157 160 159 156 150 142
354 354 348 344 340 323 300 252 229 230 230 229 229 229 225 224 222 217 212 204 198 196 193 192 189 188 184 186 189 193 207 236 245 219 154 153 160 168 173 174 176 174 169
343 345 349 346 342 334 315 298 252 238 224 222 226 219 216 223 223 218 210 203 200 198 196 196 194 190 184 187 193 195 213 235 236 196 158 160 168 177 182 185 189 192 190
332 335 340 336 331 326 319 307 291 275 246 224 227 223 214 219 220 216 197 195 198 197 196 197 193 193 194 195 188 198 219 230 223 193 166 168 176 186 192 195 198 200 200
330 327 329 327 321 316 311 303 291 279 265 245 237 236 221 209 201 198 188 190 192 194 192 191 193 199 205 207 193 197 215 223 218 187 171 175 181 192 199 203 205 207 208
323 324 322 314 310 306 301 295 292 284 275 260 242 237 233 212 207 204 194 194 196 196 194 192 198 203 207 210 204 203 206 211 214 190 174 181 185 194 202 209 211 211 213
328 324 319 315 309 305 295 288 284 283 278 276 260 246 239 220 207 205 205 201 200 201 199 199 202 207 209 207 209 209 204 205 210 192 177 185 191 196 201 210 214 214 215
329 324 322 315 308 300 295 292 292 287 279 269 260 256 253 242 223 209 207 207 207 207 205 204 208 212 212 209 210 211 206 207 206 195 182 182 193 201 204 210 215 216 218
334 331 329 326 320 308 297 292 292 296 296 285 275 264 260 256 247 221 215 212 208 206 203 207 212 209 212 211 210 213 210 205 208 203 195 186 187 197 206 211 214 217 219
339 333 330 329 324 314 299 287 283 291 294 298 297 283 268 258 252 229 216 221 212 203 208 211 213 207 212 216 216 216 211 202 206 211 208 198 193 193 196 208 213 216 219
343 337 332 330 328 321 311 300 287 282 282 291 298 303 289 280 268 245 218 225 218 213 211 207 212 212 216 214 220 223 220 211 206 209 212 208 203 199 197 199 205 215 219
353 348 342 340 335 333 326 315 302 293 286 285 284 302 303 304 293 270 249 233 219 220 221 214 211 213 218 206 204 226 240 226 218 215 212 207 207 204 202 199 197 202 212
357 353 350 346 342 340 331 318 296 289 293 296 305 312 325 331 323 298 258 245 234 226 228 226 217 215 216 195 188 191 227 238 235 224 215 213 213 205 206 204 200 200 201
358 353 349 345 343 341 336 331 326 314 312 317 321 320 326 333 327 317 296 266 254 233 228 226 221 217 219 210 196 185 198 216 219 224 221 218 213 210 211 207 206 206 204
355 353 350 350 349 347 345 345 342 331 314 310 320 323 325 337 340 351 345 322 295 263 247 243 236 231 219 217 214 213 215 189 202 228 227 220 217 218 217 215 212 209 207
359 359 353 353 358 355 354 352 345 335 324 322 329 327 321 325 339 352 348 336 325 302 285 263 248 243 233 226 218 214 226 229 217 224 234 223 227 227 223 218 215 213 211
2 1 358 360 0 357 356 355 353 347 336 336 336 326 320 326 329 337 339 330 321 310 304 292 264 251 249 243 233 220 212 212 215 220 232 228 230 233 225 219 218 215 210
Height
1514 1513 1513 1514 1515 1517 1518 1520 1521 1523 1524 1526 1527 1528 1529 1530 1531 1532 1533 1533 1534 1534 1534 1535 1535 1535 1536 1536 1537 1537 1538 1538 1538 1539 1539 1540 1540 1540 1540 1540 1540 1541 1541
1514 1514 1513 1514 1515 1517 1519 1520 1522 1523 1525 1526 1527 1529 1530 1531 1532 1533 1533 1534 1534 1535 1535 1535 1536 1536 1537 1537 1538 1538 1539 1539 1540 1541 1541 1541 1542 1542 1542 1542 1542 1542 1542
1514 1514 1513 1514 1516 1517 1519 1520 1522 1524 1525 1526 1528 1529 1530 1531 1532 1533 1534 1534 1535 1535 1536 1536 1537 1537 1538 1538 1539 1540 1540 1541 1542 1542 1542 1543 1543 1543 1543 1543 1544 1544 1544
1514 1514 1514 1515 1516 1517 1519 1520 1522 1523 1525 1526 1527 1529 1530 1531 1532 1533 1533 1534 1535 1536 1536 1537 1538 1538 1539 1539 1540 1541 1542 1543 1543 1544 1544 1544 1544 1544 1544 1544 1545 1545 1545
1514 1514 1514 1515 1516 1517 1519 1520 1521 1523 1524 1526 1527 1528 1530 1530 1531 1532 1533 1534 1535 1536 1536 1537 1538 1539 1539 1540 1541 1542 1543 1544 1545 1545 1545 1545 1545 1545 1545 1545 1545 1545 1546
1514 1514 1514 1515 1516 1517 1518 1519 1521 1522 1523 1525 1526 1527 1529 1530 1531 1532 1533 1534 1535 1536 1536 1537 1538 1539 1540 1540 1541 1542 1544 1545 1545 1546 1546 1546 1546 1546 1546 1546 1546 1546 1546
1514 1514 1514 1515 1515 1516 1517 1518 1520 1521 1522 1523 1525 1526 1527 1528 1530 1531 1532 1533 1534 1535 1536 1537 1538 1539 1540 1540 1541 1543 1544 1545 1546 1546 1547 1546 1546 1546 1546 1546 1546 1546 1546
1513 1513 1514 1514 1515 1515 1516 1517 1518 1519 1521 1522 1523 1524 1526 1527 1528 1529 1531 1532 1533 1534 1535 1536 1537 1538 1539 1540 1541 1542 1544 1544 1545 1546 1546 1546 1546 1546 1546 1546 1546 1546 1547
1512 1513 1513 1513 1514 1514 1515 1516 1517 1518 1519 1520 1521 1522 1524 1525 1526 1528 1529 1530 1531 1532 1533 1535 1536 1537 1538 1539 1540 1542 1543 1544 1545 1546 1546 1546 1546 1546 1546 1546 1546 1547 1547
1511 1511 1511 1512 1512 1513 1513 1514 1515 1516 1517 1518 1519 1520 1521 1523 1524 1525 1527 1528 1530 1531 1532 1533 1534 1536 1537 1538 1539 1540 1542 1543 1544 1545 1545 1545 1545 1546 1546 1546 1546 1546 1547
1510 1510 1510 1510 1511 1511 1512 1512 1513 1513 1514 1515 1516 1517 1519 1520 1521 1523 1524 1526 1527 1529 1530 1531 1532 1534 1535 1536 1538 1539 1540 1541 1543 1543 1544 1544 1544 1545 1545 1545 1545 1546 1546
1508 1508 1508 1508 1508 1509 1509 1510 1510 1511 1512 1512 1513 1514 1516 1517 1518 1520 1521 1523 1525 1526 1527 1529 1530 1531 1533 1534 1535 1537 1538 1540 1541 1542 1542 1543 1543 1544 1544 1544 1545 1545 1545
1506 1506 1506 1506 1506 1506 1506 1507 1508 1508 1509 1510 1511 1512 1513 1514 1515 1517 1518 1520 1521 1523 1524 1526 1527 1528 1530 1531 1533 1534 1536 1537 1539 1540 1540 1541 1542 1542 1542 1543 1543 1544 1544
1505 1504 1503 1503 1503 1503 1504 1504 1504 1505 1506 1507 1507 1509 1510 1511 1512 1513 1515 1516 1518 1519 1521 1522 1524 1525 1527 1528 1530 1531 1533 1535 1536 1537 1538 1539 1539 1540 1541 1541 1542 1542 1543
1503 1502 1501 1500 1500 1500 1500 1501 1501 1502 1503 1503 1504 1505 1506 1507 1508 1509 1511 1512 1514 1515 1517 1518 1520 1522 1523 1525 1527 1528 1530 1532 1533 1534 1535 1536 1537 1537 1538 1539 1540 1540 1541
1500 1499 1498 1498 1497 1497 1497 1497 1497 1498 1499 1500 1500 1501 1502 1503 1504 1505 1506 1508 1509 1511 1513 1514 1516 1518 1519 1522 1523 1525 1526 1528 1530 1531 1532 1533 1533 1534 1535 1536 1537 1538 1538
1498 1497 1495 1495 1494 1494 1493 1493 1494 1494 1495 1495 1496 1497 1498 1499 1500 1501 1502 1503 1505 1507 1508 1510 1512 1514 1515 1517 1519 1521 1523 1524 1526 1527 1528 1529 1530 1531 1532 1533 1534 1535 1536
1495 1494 1492 1491 1490 1490 1490 1489 1489 1490 1490 1491 1492 1492 1493 1494 1496 1496 1497 1498 1500 1502 1504 1505 1507 1509 1510 1512 1514 1516 1518 1520 1521 1522 1524 1524 1525 1526 1528 1529 1530 1531 1532
1493 1491 1489 1488 1486 1486 1485 1485 1485 1485 1486 1486 1487 1488 1489 1490 1491 1491 1492 1494 1495 1497 1498 1500 1502 1504 1505 1507 1509 1511 1512 1514 1516 1518 1519 1520 1521 1522 1523 1525 1526 1527 1528
1490 1488 1486 1484 1483 1482 1481 1481 1481 1481 1481 1482 1482 1483 1484 1485 1486 1487 1488 1489 1490 1492 1493 1495 1497 1499 1501 1502 1504 1506 1507 1509 1510 1512 1513 1515 1516 1517 1518 1520 1521 1522 1524
1487 1485 1483 1481 1480 1479 1478 1477 1476 1476 1476 1477 1477 1478 1479 1480 1481 1482 1482 1484 1485 1486 1488 1489 1492 1493 1495 1498 1499 1500 1502 1503 1504 1506 1507 1509 1510 1511 1513 1514 1516 1517 1518
1485 1483 1481 1479 1477 1476 1475 1474 1473 1473 1472 1473 1473 1474 1475 1476 1476 1477 1478 1479 1480 1481 1482 1484 1485 1487 1489 1492 1493 1495 1496 1497 1497 1499 1501 1502 1504 1505 1506 1508 1510 1511 1512
1484 1481 1479 1477 1475 1473 1472 1471 1470 1470 1469 1469 1469 1470 1471 1472 1472 1473 1474 1475 1475 1476 1477 1478 1480 1481 1483 1485 1487 1489 1490 1489 1491 1492 1493 1495 1497 1498 1500 1502 1503 1505 1506
1483 1481 1478 1475 1473 1471 1470 1469 1467 1466 1465 1465 1466 1466 1467 1468 1468 1469 1469 1470 1471 1471 1472 1473 1474 1475 1477 1478 1480 1482 1484 1484 1486 1485 1486 1488 1490 1491 1493 1495 1496 1498 1499
1483 1480 1477 1474 1472 1470 1468 1467 1465 1464 1463 1463 1463 1463 1463 1464 1465 1465 1465 1466 1466 1467 1467 1468 1469 1470 1471 1472 1473 1474 1476 1478 1479 1480 1480 1481 1483 1484 1486 1487 1489 1491 1493
1482 1479 1476 1473 1471 1469 1467 1465 1464 1462 1461 1461 1460 1460 1460 1461 1461 1461 1461 1462 1462 1462 1463 1463 1464 1465 1465 1466 1467 1468 1469 1470 1471 1473 1474 1474 1475 1476 1478 1480 1481 1483 1485